New York Downtown Manhattan/w, NY

1:21 PM EDT on August 17, 2019 (GMT -0400)
New York Downtown Manhattan/w

Weather History for KJRB - June, 2019

Change the Weather History Date:

Wednesday, June 5, 2019

  Actual Average (WUND) Record (WUND)
Temperature  
Mean Temperature 73 °F -  
Max Temperature 82 °F - - (-1)
Min Temperature 64 °F - - (-1)
Cooling Degree Days 8    
Growing Degree Days 23 (Base 50)    
Moisture  
Dew Point 61 °F    
Average Humidity 69    
Maximum Humidity 90    
Minimum Humidity 47    
Precipitation  
Precipitation 0.02 in - - ()
Sea Level Pressure  
Sea Level Pressure 29.86 in    
Wind  
Wind Speed 6 mph ()    
Max Wind Speed 12 mph    
Max Gust Speed 36 mph    
Visibility 10.0 miles    
Events Rain    
Averages and records for this station are not official NWS values.
T = Trace of Precipitation, MM = Missing Value Source: Averaged Metar Reports

Daily Weather History Graph

Daily Weather History Graph

Search for Another Location

Airport or City:

Astronomy

Jun. 05, 2019 Rise Set
Actual Time 5:25 AM EDT 8:23 PM EDT
Civil Twilight 4:52 AM EDT 8:56 PM EDT
Nautical Twilight 4:11 AM EDT 9:38 PM EDT
Astronomical Twilight 3:22 AM EDT 10:27 PM EDT
Moon 7:28 AM EDT (6/5) 10:47 PM EDT (6/5)
Length of Visible Light 16h 03m
Length of Day
14h 57m
Waxing Crescent, 6% of the Moon is Illuminated
Jun 5
Waxing Crescent
Jun 10
First Quarter
Jun 17
Full
Jun 25
Last Quarter
Jul 2
New

Hourly Weather History & Observations

Time (EDT) Temp. Heat Index Dew Point Humidity Pressure Visibility Wind Dir Wind Speed Gust Speed Precip Events Conditions
12:56 AM 66.0 °F - 48.0 °F 52% 30.00 in 10.0 mi West 9.2 mph - N/A   Partly Cloudy
1:56 AM 64.9 °F - 50.0 °F 58% 29.99 in 10.0 mi WSW 9.2 mph - N/A   Clear
2:56 AM 64.0 °F - 52.0 °F 65% 29.98 in 10.0 mi WSW 6.9 mph - N/A   Scattered Clouds
3:56 AM 64.0 °F - 53.1 °F 67% 29.97 in 10.0 mi WSW 6.9 mph - N/A   Overcast
4:56 AM 64.9 °F - 54.0 °F 68% 29.96 in 10.0 mi WSW 5.8 mph - 0.00 in   Overcast
5:56 AM 64.9 °F - 55.0 °F 70% 29.96 in 10.0 mi West 6.9 mph - 0.00 in   Overcast
6:56 AM 64.9 °F - 57.0 °F 75% 29.96 in 10.0 mi WSW 5.8 mph - 0.00 in   Overcast
7:56 AM 66.0 °F - 57.0 °F 73% 29.96 in 10.0 mi West 6.9 mph - N/A   Mostly Cloudy
8:56 AM 66.9 °F - 57.9 °F 73% 29.94 in 10.0 mi WSW 4.6 mph - N/A   Clear
9:56 AM 69.1 °F - 60.1 °F 73% 29.93 in 10.0 mi SW 6.9 mph - N/A   Scattered Clouds
10:56 AM 70.0 °F - 60.1 °F 71% 29.92 in 10.0 mi SW 6.9 mph - N/A   Clear
11:56 AM 75.0 °F - 60.1 °F 60% 29.91 in 10.0 mi SW 4.6 mph - N/A   Clear
12:56 PM - - - N/A% 29.88 in 10.0 mi SW 5.8 mph - N/A   Clear
1:56 PM 82.0 °F 82.4 °F 60.1 °F 47% 29.85 in 10.0 mi WSW 4.6 mph - N/A   Clear
2:56 PM 82.0 °F 83.0 °F 62.1 °F 51% 29.83 in 10.0 mi South 8.1 mph - N/A   Clear
3:56 PM 78.1 °F - 63.0 °F 60% 29.81 in 10.0 mi South 5.8 mph 35.7 mph N/A   Mostly Cloudy
4:56 PM 81.0 °F 82.7 °F 64.9 °F 58% 29.78 in 10.0 mi Calm Calm - N/A   Mostly Cloudy
5:56 PM 78.1 °F - 64.0 °F 62% 29.76 in 10.0 mi Calm Calm - N/A   Scattered Clouds
6:56 PM 79.0 °F - 64.9 °F 62% 29.75 in 10.0 mi West 3.5 mph - N/A   Partly Cloudy
7:56 PM 75.9 °F - 66.0 °F 71% 29.75 in 10.0 mi WSW 6.9 mph - N/A   Scattered Clouds
8:56 PM 73.9 °F - 68.0 °F 82% 29.76 in 10.0 mi WSW 6.9 mph - N/A   Clear
9:56 PM 73.0 °F - 68.0 °F 84% 29.77 in 10.0 mi West 6.9 mph - N/A   Overcast
10:29 PM 71.6 °F - 66.2 °F 83% 29.77 in 10.0 mi SW 11.5 mph - N/A   Overcast
10:56 PM 71.1 °F - 68.0 °F 90% 29.76 in 9.0 mi WSW 9.2 mph - 0.02 in Rain Light Rain
11:18 PM 71.6 °F - 68.0 °F 88% 29.75 in 10.0 mi WSW 10.4 mph - 0.00 in   Mostly Cloudy
11:56 PM 71.1 °F - 68.0 °F 90% 29.75 in 10.0 mi WSW 10.4 mph - 0.00 in   Overcast